When you browse on this site, cookies collect data to enhance your experience and personalize the content and advertising you see.
Visit our Privacy Policy to learn more. By continuing to use the site, you agree to this use of cookies and data.
  • In Schweiz
  • Länderverzeichnis
  • Für 7 Tage
  • Wassertemperatur
  • Satellitenkarten
  • Wetterkarte
  • Widgets
  • user-avatar
    Anmelden

    Stündliche Wetter Serowe

    Heute, 24 Januar, Donnerstag

    Zeit Temperatur Niederschläge Wind Luftdruck Luftfeuchtigkeit
    00:00 +26°C° 0 mm 2 m/S 664 mmHg 34%
    01:00 +26°C° 0 mm 2 m/S 664 mmHg 36%
    02:00 +25°C° 0 mm 3 m/S 664 mmHg 38%
    03:00 +25°C° 0 mm 3 m/S 664 mmHg 39%
    04:00 +25°C° 0 mm 3 m/S 664 mmHg 40%
    05:00 +25°C° 0 mm 3 m/S 664 mmHg 41%
    06:00 +26°C° 0 mm 2 m/S 665 mmHg 39%
    07:00 +28°C° 0 mm 2 m/S 666 mmHg 37%
    08:00 +29°C° 0 mm 2 m/S 666 mmHg 35%
    09:00 +31°C° 0 mm 2 m/S 667 mmHg 31%
    10:00 +34°C° 0 mm 2 m/S 667 mmHg 26%
    11:00 +37°C° 0 mm 2 m/S 668 mmHg 22%
    12:00 +37°C° 0 mm 2 m/S 668 mmHg 21%
    13:00 +38°C° 0 mm 2 m/S 667 mmHg 19%
    14:00 +39°C° 0 mm 1 m/S 667 mmHg 18%
    15:00 +37°C° 0 mm 1 m/S 666 mmHg 20%
    16:00 +36°C° 0 mm 1 m/S 665 mmHg 22%
    17:00 +34°C° 0 mm 1 m/S 665 mmHg 24%
    18:00 +34°C° 0 mm 2 m/S 665 mmHg 26%
    19:00 +32°C° 0 mm 2 m/S 665 mmHg 29%
    20:00 +31°C° 0 mm 3 m/S 665 mmHg 32%
    21:00 +30°C° 0 mm 4 m/S 665 mmHg 35%
    22:00 +29°C° 0 mm 4 m/S 665 mmHg 39%
    23:00 +28°C° 0 mm 5 m/S 666 mmHg 42%

    Morgen, 25 Januar, Freitag

    Zeit Temperatur Niederschläge Wind Luftdruck Luftfeuchtigkeit
    00:00 +27°C° 0 mm 5 m/S 666 mmHg 42%
    01:00 +27°C° 0 mm 5 m/S 665 mmHg 42%
    02:00 +26°C° 0 mm 5 m/S 665 mmHg 42%
    03:00 +26°C° 0 mm 5 m/S 665 mmHg 42%
    04:00 +25°C° 0 mm 5 m/S 665 mmHg 43%
    05:00 +23°C° 0 mm 5 m/S 665 mmHg 43%
    06:00 +25°C° 0 mm 5 m/S 666 mmHg 44%
    07:00 +26°C° 0 mm 5 m/S 667 mmHg 46%
    08:00 +26°C° 0 mm 6 m/S 668 mmHg 47%
    09:00 +27°C° 0 mm 6 m/S 668 mmHg 47%
    10:00 +29°C° 0 mm 5 m/S 668 mmHg 46%
    11:00 +30°C° 0 mm 5 m/S 669 mmHg 46%
    12:00 +30°C° 0 mm 5 m/S 668 mmHg 46%
    13:00 +30°C° 0 mm 5 m/S 667 mmHg 46%
    14:00 +30°C° 0 mm 4 m/S 667 mmHg 46%
    15:00 +32°C° 0 mm 4 m/S 666 mmHg 43%
    16:00 +33°C° 0 mm 4 m/S 666 mmHg 39%
    17:00 +34°C° 0 mm 3 m/S 666 mmHg 35%
    18:00 +31°C° 0 mm 3 m/S 665 mmHg 39%
    19:00 +29°C° 0 mm 2 m/S 665 mmHg 43%
    20:00 +27°C° 0 mm 2 m/S 665 mmHg 47%
    21:00 +27°C° 0 mm 2 m/S 665 mmHg 49%
    22:00 +26°C° 0 mm 2 m/S 666 mmHg 51%
    23:00 +26°C° 0 mm 2 m/S 666 mmHg 52%

    übermorgen, 26 Januar, Samstag

    Zeit Temperatur Niederschläge Wind Luftdruck Luftfeuchtigkeit
    00:00 +26°C° 0 mm 3 m/S 666 mmHg 52%
    01:00 +26°C° 0 mm 4 m/S 666 mmHg 51%
    02:00 +25°C° 0 mm 5 m/S 666 mmHg 50%
    03:00 +25°C° 0.3 mm 4 m/S 666 mmHg 54%
    04:00 +23°C° 0.3 mm 4 m/S 666 mmHg 57%
    05:00 +22°C° 0.3 mm 4 m/S 666 mmHg 61%
    06:00 +23°C° 0 mm 5 m/S 667 mmHg 59%
    07:00 +25°C° 0 mm 5 m/S 667 mmHg 57%
    08:00 +24°C° 0 mm 6 m/S 668 mmHg 55%
    09:00 +27°C° 0 mm 6 m/S 668 mmHg 49%
    10:00 +29°C° 0 mm 5 m/S 668 mmHg 42%
    11:00 +32°C° 0 mm 5 m/S 668 mmHg 36%
    12:00 +33°C° 0 mm 4 m/S 668 mmHg 32%
    13:00 +35°C° 0 mm 4 m/S 668 mmHg 29%
    14:00 +36°C° 0 mm 3 m/S 667 mmHg 26%
    15:00 +36°C° 0 mm 2 m/S 667 mmHg 25%
    16:00 +36°C° 0 mm 1 m/S 666 mmHg 24%
    17:00 +36°C° 0 mm 1 m/S 666 mmHg 23%
    18:00 +35°C° 0.1 mm 2 m/S 666 mmHg 28%
    19:00 +32°C° 0.1 mm 2 m/S 665 mmHg 33%
    20:00 +29°C° 0.1 mm 3 m/S 665 mmHg 38%
    21:00 +28°C° 0 mm 4 m/S 666 mmHg 46%
    22:00 +27°C° 0 mm 5 m/S 666 mmHg 55%
    23:00 +26°C° 0 mm 6 m/S 667 mmHg 63%

    27 Januar, Sonntag

    Zeit Temperatur Niederschläge Wind Luftdruck Luftfeuchtigkeit
    00:00 +24°C° 0.8 mm 6 m/S 667 mmHg 69%
    01:00 +23°C° 0.8 mm 7 m/S 667 mmHg 74%
    02:00 +22°C° 0.8 mm 7 m/S 666 mmHg 79%
    03:00 +22°C° 0.5 mm 7 m/S 667 mmHg 80%
    04:00 +21°C° 0.5 mm 7 m/S 667 mmHg 81%
    05:00 +21°C° 0.5 mm 7 m/S 667 mmHg 83%
    06:00 +21°C° 0.2 mm 7 m/S 667 mmHg 82%
    07:00 +21°C° 0.2 mm 7 m/S 668 mmHg 81%
    08:00 +22°C° 0.2 mm 7 m/S 668 mmHg 80%
    09:00 +22°C° 0.1 mm 7 m/S 668 mmHg 76%
    10:00 +23°C° 0.1 mm 7 m/S 668 mmHg 72%
    11:00 +24°C° 0.1 mm 7 m/S 668 mmHg 69%
    12:00 +27°C° 0 mm 6 m/S 668 mmHg 61%
    13:00 +29°C° 0 mm 6 m/S 667 mmHg 53%
    14:00 +32°C° 0 mm 5 m/S 667 mmHg 45%
    15:00 +33°C° 0 mm 5 m/S 667 mmHg 43%
    16:00 +33°C° 0 mm 4 m/S 666 mmHg 41%
    17:00 +33°C° 0 mm 3 m/S 666 mmHg 39%
    18:00 +30°C° 0 mm 4 m/S 666 mmHg 47%
    19:00 +28°C° 0 mm 5 m/S 665 mmHg 54%
    20:00 +26°C° 0 mm 6 m/S 665 mmHg 62%
    21:00 +24°C° 0.1 mm 6 m/S 665 mmHg 66%
    22:00 +23°C° 0.1 mm 6 m/S 666 mmHg 70%
    23:00 +22°C° 0.1 mm 6 m/S 667 mmHg 75%

    28 Januar, Montag

    Zeit Temperatur Niederschläge Wind Luftdruck Luftfeuchtigkeit
    00:00 +21°C° 0.6 mm 6 m/S 667 mmHg 77%
    01:00 +21°C° 0.6 mm 5 m/S 667 mmHg 80%
    02:00 +20°C° 0.6 mm 5 m/S 667 mmHg 83%
    03:00 +20°C° 0.1 mm 5 m/S 667 mmHg 84%
    04:00 +20°C° 0.1 mm 5 m/S 667 mmHg 84%
    05:00 +19°C° 0.1 mm 5 m/S 667 mmHg 85%
    06:00 +20°C° 0 mm 5 m/S 667 mmHg 82%
    07:00 +21°C° 0 mm 5 m/S 667 mmHg 79%
    08:00 +22°C° 0 mm 5 m/S 668 mmHg 76%
    09:00 +23°C° 0 mm 5 m/S 668 mmHg 71%
    10:00 +25°C° 0 mm 5 m/S 668 mmHg 66%
    11:00 +26°C° 0 mm 5 m/S 668 mmHg 60%
    12:00 +28°C° 0 mm 5 m/S 668 mmHg 54%
    13:00 +30°C° 0 mm 4 m/S 667 mmHg 47%
    14:00 +33°C° 0 mm 3 m/S 667 mmHg 40%
    15:00 +33°C° 0 mm 3 m/S 667 mmHg 38%
    16:00 +33°C° 0 mm 3 m/S 666 mmHg 37%
    17:00 +33°C° 0 mm 3 m/S 666 mmHg 35%
    18:00 +31°C° 0 mm 3 m/S 666 mmHg 40%
    19:00 +29°C° 0 mm 4 m/S 666 mmHg 46%
    20:00 +27°C° 0 mm 4 m/S 666 mmHg 51%
    21:00 +26°C° 0 mm 5 m/S 666 mmHg 54%
    22:00 +26°C° 0 mm 5 m/S 667 mmHg 57%
    23:00 +24°C° 0 mm 6 m/S 667 mmHg 61%

    29 Januar, Dienstag

    Zeit Temperatur Niederschläge Wind Luftdruck Luftfeuchtigkeit
    00:00 +23°C° 0 mm 6 m/S 667 mmHg 63%
    01:00 +23°C° 0 mm 5 m/S 667 mmHg 66%
    02:00 +22°C° 0 mm 5 m/S 667 mmHg 68%
    03:00 +22°C° 0 mm 5 m/S 667 mmHg 70%
    04:00 +21°C° 0 mm 5 m/S 667 mmHg 72%
    05:00 +21°C° 0 mm 5 m/S 667 mmHg 73%
    06:00 +21°C° 0 mm 5 m/S 668 mmHg 71%
    07:00 +22°C° 0 mm 5 m/S 668 mmHg 68%
    08:00 +23°C° 0 mm 5 m/S 669 mmHg 66%
    09:00 +26°C° 0 mm 5 m/S 669 mmHg 59%
    10:00 +28°C° 0 mm 5 m/S 669 mmHg 52%
    11:00 +30°C° 0 mm 5 m/S 670 mmHg 45%
    12:00 +32°C° 0 mm 4 m/S 669 mmHg 41%
    13:00 +33°C° 0 mm 4 m/S 669 mmHg 37%
    14:00 +34°C° 0 mm 3 m/S 668 mmHg 33%
    15:00 +34°C° 0 mm 3 m/S 668 mmHg 32%
    16:00 +34°C° 0 mm 3 m/S 667 mmHg 31%
    17:00 +34°C° 0 mm 3 m/S 667 mmHg 31%
    18:00 +31°C° 0 mm 3 m/S 667 mmHg 34%
    19:00 +29°C° 0 mm 3 m/S 667 mmHg 38%
    20:00 +28°C° 0 mm 3 m/S 667 mmHg 42%
    21:00 +27°C° 0 mm 3 m/S 667 mmHg 43%
    22:00 +27°C° 0 mm 3 m/S 667 mmHg 45%
    23:00 +26°C° 0 mm 3 m/S 667 mmHg 47%
    Mehr zeigen